Torna al catalogo

TRANSIT 4B

AttivoNavigazioneLEO
NORAD 202·PAYLOAD·🇺🇸 United States

Lanciato Nov 15, 1961 da Cape Canaveral Space Force Station

Loading…

Prossimi Passaggi (prossime 24 ore)

TLE

AggiornatoSource: Space-Track

Epoca: Sep 7, 2026, 04:05 UTC

1 00202U 61031A   26250.17068918  .00000049  00000-0  33437-4 0  9997
2 00202  32.4381 311.6496 0100754 117.5770 243.5126 13.63798024232195

Traccia TRANSIT 4B in tempo reale con AllMySat

Download on the App Store